{"data":{"norad_id":49303,"intl_designator":"2021-090AA","name":"ONEWEB-0377","alt_names":[],"object_type":"PAYLOAD","status":"ACTIVE","operator":null,"country":"UK","launch_date":"2021-10-14","launch_site_code":"VOSTO","launch_vehicle":null,"mission":null,"orbit_class":"UNKNOWN","rcs_meters":null,"size_class":null,"mass_kg":null,"dimensions":null,"purposes":["comms"],"wikipedia_slug":null,"has_3d_model":false,"image_url":null,"decayed_at":null,"tle_current":{"epoch":"2026-05-24T21:43:23.256192Z","epoch_age_seconds":80431,"freshness":"FRESH","line1":"1 49303U 21090AA  26144.90513028 -.00000116  00000+0 -31608-3 0  9996","line2":"2 49303  87.9175 279.0775 0002075 103.5581 256.5784 13.20770395227445","mean_motion":13.20770395,"eccentricity":0.0002075,"inclination_deg":87.9175,"raan_deg":279.0775,"arg_perigee_deg":103.5581,"mean_anomaly_deg":256.5784,"bstar":-0.00031608,"rev_number":22744,"period_min":109.02727722028,"perigee_km":1180.2101009118,"apogee_km":1183.3474659619,"semimajor_km":7559.9157834368,"source":"CELESTRAK","updated_at":"2026-05-25T13:38:22.524562Z"}}}